Weather Roundup
Issued by NWS Chicago, IL

Home | Current Version | Previous Version | Text Only | Print | Product List | Glossary Off
Versions: 1 2 3 4 5 6 7 8 9 10 11 12 13 14 15 16 17 18 19 20 21 22 23 24 25 26 27 28 29 30 31 32 33 34 35 36 37 38 39 40 41 42 43 44 45 46 47 48 49 50

000
NZUS59 KLOT 261100
HRRLOT

CHICAGO AREA WEATHER ROUNDUP
NATIONAL WEATHER SERVICE CHICAGO/ROMEOVILLE IL
500 AM CST MON JAN 26 2015

NOTE: "FAIR" INDICATES FEW OR NO CLOUDS BELOW 12,000 FEET WITH NO
SIGNIFICANT WEATHER AND/OR OBSTRUCTIONS TO VISIBILITY.

* THESE STATIONS ARE NOT UNDER NWS QUALITY CONTROL. THEY ALSO MAY NOT
  REPORT WEATHER SUCH AS PRECIPITATION OR FOG.

ILZ005-006-012>014-019>023-261200-
NORTHEAST ILLINOIS

CITY           SKY/WX    TMP DP  RH WIND       PRES   REMARKS
OHARE          PTCLDY    18  13  80 CALM      29.96F
MIDWAY         PTCLDY    23  16  74 N5        29.97S WCI  17
AURORA         CLEAR     14   9  80 NW3       29.97F
WAUKEGAN       CLOUDY    17  13  84 W5        29.96F WCI  10
DUPAGE AIRPORT CLEAR     14  10  84 N5        29.96F WCI   6
WHEELING       MOCLDY    18  12  77 NW3       29.98F
NORTHERLY IS     N/A     22  15  75 N5          N/A  WCI  16
$$

WIZ051-052-058>065-066-070>072-261200-
SOUTHEAST WISCONSIN

CITY           SKY/WX    TMP DP  RH WIND       PRES   REMARKS
MILWAUKEE      MOCLDY    18  11  74 W3        29.96F
KENOSHA*       CLOUDY    17  13  84 VRB3      29.96F
RACINE*        MOCLDY    18  12  77 W5        29.98F WCI  11
$$

INZ001>003-010>013-019-020-261200-
NORTHWEST INDIANA

CITY           SKY/WX    TMP DP  RH WIND       PRES   REMARKS
GARY*          CLEAR     19   9  63 MISG      29.98S
MICHIGAN CITY* NOT AVBL
RENSSELAER*    NOT AVBL
$$

LMZ740>746-261200-
SOUTHERN LAKE MICHIGAN

STATION/POSITION TIME  SKY/WX   TEMP WIND        PRES    VSBY
                                AIR  DIR/SP/G
                 (UTC)          (F)  (DEG/KT/KT) (MB)    (MI)
HARRISON CRIB    1000            23   50/  5/  6   N/A
BURNHAM HARBOR   1100            22  360/  4/  8   N/A
CALUMET HARBOR   1000            22   30/  4/  6   N/A
BURNS HARBOR     NOT AVBL
MICHIGAN CITY    1000            17   60/  5/  8   N/A
$$

ABBREVIATIONS USED IN REMARKS
   TC - TEMPERATURE IN CELSIUS
  WCI - WIND CHILL INDEX
   HX - HEAT INDEX
  VSB - VISIBILITY
$$


USA.gov is the U.S. government's official web portal to all federal, state and local government web resources and services.